#timestamp,LO_Frequency,Hit 
1505793615.1,286047001.8,N
1505793635.8,286047002.0,N
1505793655.7,286047002.9,N
1505793675.5,286047004.5,N
1505793695.3,286047005.0,N
1505793715.2,286047006.9,N
1505793735.9,286047006.4,N
1505793755.7,286047009.2,N
1505793775.6,286047002.9,N
1505793795.4,286047001.0,N
1505793815.2,286047000.9,N
1505793835.0,286046998.2,N
1505793835.9,286046998.2,N
1505793855.8,286046999.0,N
1505793875.6,286046997.7,N
1505793895.4,286047000.1,N
1505793915.3,286047001.5,N
1505793935.1,286046998.6,N
1505793955.8,286047002.3,N
1505793975.7,286047007.4,N
1505793995.5,286047003.6,N
1505794015.3,286047003.7,N
1505794035.2,286047005.3,N
1505794055.9,286047003.6,N
1505794075.7,286047008.6,N
1505794095.6,286047009.2,N
1505794115.4,286047005.4,N
1505794135.2,286047005.6,N
1505794155.0,286047003.5,N
1505794156.0,286047003.5,N
1505794175.8,286047004.3,N
1505794195.6,286047006.0,N
1505794215.4,286047001.8,N
1505794235.3,286047001.6,N
1505794255.1,286047002.3,N
1505794275.8,286047004.3,N
1505794295.7,286047005.7,N
1505794315.5,286047002.0,N
1505794335.3,286047001.9,N
1505794355.2,286047003.3,N
1505794375.9,286047004.6,N
1505794395.7,286047006.4,N
1505794415.6,286047006.3,N
1505794435.4,286047005.1,N
1505794455.2,286047010.1,P
1505794475.1,286047007.8,N
1505794476.0,286047007.8,P
1505794495.8,286047006.1,N
1505794515.6,286047008.4,P
1505794535.5,286047005.5,P
1505794555.3,286047005.9,P
1505794575.1,286047000.3,N
1505794595.9,286046998.8,N
1505794615.7,286046996.2,N
1505794635.5,286047000.0,N
1505794655.4,286047005.6,N
1505794675.2,286047003.0,N
1505794695.0,286047000.6,N
1505794695.9,286047000.6,N
1505794715.8,286046997.9,N
1505794735.6,286046997.6,N
1505794755.4,286046999.0,N
1505794775.2,286046996.8,N
1505794795.1,286046996.3,N
1505794796.0,286046996.3,N
1505794815.8,286046996.1,N
1505794835.6,286046992.4,N
1505794855.5,286046994.2,N
1505794875.3,286046997.9,N
1505794895.1,286046995.9,N
1505794915.9,286046994.1,N
1505794935.7,286046992.3,N
1505794955.5,286046998.5,N
1505794975.4,286047000.7,N
1505794995.2,286046995.1,N
1505795015.0,286046996.9,N
1505795015.9,286046996.9,N
1505795035.8,286047001.1,N
1505795055.6,286047000.6,N
1505795075.4,286046996.8,N
1505795095.2,286046995.2,N
1505795115.1,286046996.8,N
1505795116.0,286046996.8,N
1505795135.8,286046996.7,N
1505795155.6,286046998.4,N
1505795175.5,286046997.4,N
1505795195.3,286046998.9,N
1505795215.1,286046997.0,N
1505795235.9,286047002.7,N
1505795255.7,286046998.4,N
1505795275.5,286046997.3,N
1505795295.4,286046995.8,N
1505795315.2,286046991.9,P
1505795335.0,286046996.0,N
1505795335.9,286046996.0,N
1505795355.8,286046995.6,N
1505795375.6,286046993.9,P
1505795395.4,286046998.3,N
1505795415.3,286046998.4,N
1505795435.1,286046998.6,N
1505795455.8,286047001.9,N
1505795475.7,286047001.5,N
1505795495.5,286047000.6,N
1505795515.3,286046998.8,N
1505795535.2,286046999.0,N
1505795555.9,286047002.8,N
1505795575.7,286047006.2,N
1505795595.6,286047008.4,N
1505795615.4,286047004.9,N
1505795635.2,286047005.0,N
1505795655.0,286047000.1,N
1505795655.9,286047000.1,N
1505795675.8,286047000.1,N
1505795695.6,286047002.7,N
1505795715.4,286047001.3,N
1505795735.3,286047004.2,N
1505795755.1,286047004.1,N
1505795775.8,286047001.4,N
1505795795.7,286047007.6,N
1505795815.5,286047004.9,N
1505795835.3,286047004.2,N
1505795855.2,286047002.4,N
1505795875.9,286047001.6,N
1505795895.7,286047004.0,N
1505795915.6,286047005.9,N
1505795935.4,286047007.0,N
1505795955.2,286047012.1,P
1505795975.1,286047012.3,N
1505795976.0,286047012.3,N
1505795995.8,286047007.9,N
1505796015.6,286047007.5,N
1505796035.5,286047002.9,N
1505796055.3,286047006.6,N
1505796075.1,286047004.7,N
1505796095.8,286047002.5,N
1505796115.7,286046998.2,N
1505796135.5,286047000.8,N
1505796155.3,286046998.4,N
1505796175.2,286046999.8,N
1505796195.9,286046999.0,N
1505796215.7,286047001.9,N
1505796235.6,286046995.4,N
1505796255.4,286046994.1,N
1505796275.2,286046995.7,N
1505796295.1,286046996.4,N
1505796296.0,286046996.4,N
1505796315.8,286046999.1,N
1505796335.6,286046997.6,N
1505796355.5,286046999.3,N
1505796375.3,286046995.0,N
1505796395.1,286046992.4,N
1505796415.8,286046990.3,N
1505796435.7,286046992.3,N
1505796455.5,286046997.0,N
1505796475.3,286047004.4,N
1505796495.2,286047003.2,N
1505796515.9,286047004.1,N
1505796535.7,286047005.2,N
1505796555.6,286047009.1,N
1505796575.4,286047005.1,N
1505796595.2,286047005.4,N
1505796615.1,286047005.8,N
1505796616.0,286047005.8,N
1505796635.8,286047003.6,N
1505796655.6,286046999.7,N
1505796675.5,286046999.3,N
1505796695.3,286046997.9,N
1505796715.1,286046999.5,N
1505796735.8,286047001.1,N
1505796755.7,286047002.5,N
1505796775.5,286047005.2,N
1505796795.3,286047003.6,N
1505796815.2,286047003.2,N
1505796835.9,286047001.6,N
1505796855.7,286047004.0,N
1505796875.6,286047004.0,N
1505796895.4,286047006.0,N
1505796915.2,286046998.3,N
1505796935.1,286047001.5,N
1505796936.0,286047001.5,N
1505796955.8,286047000.4,N
1505796975.6,286047000.0,N
1505796995.5,286047001.6,N
1505797015.3,286047002.0,N
1505797035.1,286047002.4,N
1505797055.8,286047001.2,N
1505797075.7,286046999.3,N
1505797095.5,286046998.5,N
1505797115.3,286046999.5,N
1505797135.2,286046996.6,N
1505797155.0,286046997.2,N
1505797155.9,286046997.2,N
1505797175.7,286046995.8,N
1505797195.6,286046992.4,N
